Vertical_Velocity
-1 12 -2 9 0 -5 -7 5 -5 -1 3 -5 -1 -3 -7 -1 -1 2 4 0 -2 -1 1 2 -0 3 -1 -0 0 0 -1 -1 1 0 -1 -0 -1 -1 -1 -0 0 -1 -0
10 7 -6 6 9 -4 -12 10 -0 7 -3 4 8 -8 -3 1 3 3 5 3 1 1 -0 -1 2 1 -0 0 -1 -2 -1 -0 -1 -0 2 -1 5 -2 -1 -1 0 1 -0
-3 10 1 2 2 -2 -5 11 4 1 -6 5 6 -2 -1 2 9 2 6 3 5 1 0 -3 0 4 1 4 2 1 0 -1 -0 2 1 2 -4 7 -3 -1 -1 0 2
3 -3 9 10 6 1 -6 -2 3 2 10 12 1 0 -5 0 8 0 1 2 6 8 6 -1 -3 -1 -2 0 -0 -2 -1 4 3 0 2 1 -1 -3 2 1 -0 2 3
-2 -8 5 1 1 -4 -4 -6 -0 9 4 -9 30 1 -6 -2 -8 5 -7 10 10 6 7 -7 8 8 3 6 3 1 2 6 4 -2 -6 1 1 3 1 -3 -3 -3 -1
2 -1 -1 3 1 -5 -3 -3 -1 0 5 -55 24 10 -1 -9 -10 -5 -13 1 -7 4 -1 -12 1 3 2 11 15 13 -1 3 -7 -5 -1 -3 -2 -1 -2 3 -2 5 -0
1 1 -2 -4 6 -7 -4 -2 -22 4 -1 10 -4 19 -21 1 -3 -30 -25 -14 10 -9 1 -11 -16 -11 4 -10 4 2 -7 1 -2 8 6 6 -1 4 -2 2 -1 -2 1
-3 -2 3 2 2 -3 -11 -33 -19 12 21 -3 -15 -7 -1 -4 -3 8 -18 -30 -25 -16 24 25 -17 -15 -15 -17 -13 6 9 1 3 4 1 5 0 4 -0 2 4 -2 -2
-2 -1 1 2 -3 0 2 -9 -8 -0 2 -4 11 10 -5 13 -5 1 2 -2 -2 -6 -22 1 11 10 1 6 2 1 6 -1 -3 0 2 2 2 1 1 3 2 -0 -2
7 2 -2 5 1 4 5 -3 3 14 4 0 -1 6 -0 8 9 7 7 4 5 8 6 10 3 1 2 1 3 1 1 3 3 1 3 4 -1 -4 8 4 1 4 -0
-5 -9 -1 7 1 1 -1 2 3 -3 5 2 -1 4 3 1 4 5 1 4 6 3 5 2 2 -1 2 1 -1 1 -1 3 4 -0 7 -5 2 11 2 7 1 -1 2
2 1 4 7 1 0 1 2 -3 3 5 2 1 0 3 -1 -0 3 2 1 -0 1 1 1 -0 -2 -3 2 2 0 2 -4 -2 3 6 -3 2 5 7 7 -2 3 0
2 3 1 0 3 1 1 2 -1 2 -1 -0 -0 2 1 -5 -1 -1 -0 2 2 1 -1 -1 1 2 0 -2 -2 -1 -3 2 1 -3 3 4 -1 5 11 -0 1 2 1
1 2 3 2 2 2 1 2 1 -1 -1 1 2 0 -2 -3 1 -1 -1 -3 -4 -6 -6 -3 -4 -2 -2 -2 -2 -3 2 2 4 0 0 -3 5 -1 1 2 0 1 -2
1 1 2 3 2 1 1 2 2 1 1 -0 1 1 3 3 -2 -1 -2 1 -1 2 0 -1 0 2 2 2 3 2 -1 -0 2 1 -2 2 -0 2 2 2 -1 2 0
2 2 0 0 2 2 3 3 3 4 1 -1 -3 -3 -3 -3 -0 -2 -2 -4 -1 -1 -1 -1 -0 -2 -1 -1 -1 1 -1 1 1 -1 0 1 0 2 2 1 -1 -1 -0
-1 -0 1 1 1 -0 -0 0 -1 -1 -1 -1 0 2 4 2 -1 -0 0 0 -0 -3 -1 -1 -2 -1 -0 1 -1 -2 -1 2 -0 1 0 1 -1 0 -2 -2 -2 -0 4
1 1 0 -2 -1 -0 0 0 -0 1 0 1 2 1 -1 -1 -0 1 -0 -3 -2 -1 -3 -4 2 -6 -2 -1 -3 0 -2 1 -2 3 2 -0 -1 1 -3 2 1 1 0
4 5 4 4 3 2 0 -2 -2 -1 -0 0 -1 -1 -0 -0 -0 -2 -2 -0 1 1 -0 -2 -0 0 -1 -2 -1 -0 2 2 2 1 3 -2 -2 -2 6 -2 2 -2 2
-0 -1 -1 -1 -2 -0 1 0 -1 1 -1 -1 -1 -2 1 0 0 -1 -0 0 -0 1 2 -2 1 -0 -1 -2 0 2 -0 2 2 1 -0 -3 0 1 -0 1 1 -3 1
2 3 2 -1 -2 0 0 2 2 1 -1 -1 -1 0 -0 -1 1 1 1 -2 -1 -1 -1 -2 -3 -2 -1 -1 1 -1 1 1 -1 1 -2 -1 2 0 0 -1 0 -0 -1
-1 -2 -1 -2 0 3 3 0 1 -1 0 1 2 1 -1 -1 -1 -2 0 -0 -2 -1 -1 -1 -1 -0 -1 -1 0 -0 2 1 2 3 -1 -4 2 2 -1 -0 1 -1 -1
0 -1 -1 1 1 -1 -2 2 3 1 1 -0 -1 -0 -1 -0 -1 -1 1 -1 -1 -0 -0 -0 -1 -1 -0 0 -0 1 1 1 0 -2 -0 0 1 2 -1 0 0 -2 -1
1 -0 -0 -3 -4 -1 0 -2 -1 1 -0 0 -1 -1 -1 -1 -1 0 -0 1 -0 -1 -1 -1 -0 0 -1 -1 -0 1 -0 -2 -1 0 -1 1 1 -0 -1 1 0 -1 -2
0 -1 -3 -2 -1 -3 -1 1 -0 -2 -1 -2 -0 -1 -0 0 -0 -0 -1 -0 -0 -0 -1 0 1 -0 -1 2 -3 0 0 1 3 1 -1 -0 1 -1 1 0 -1 -1 -1
-2 1 -1 -1 -1 -1 -2 -1 0 -1 -1 -0 -0 0 -0 -0 -1 -0 -0 1 -0 1 -0 -0 -1 0 1 1 1 2 2 0 1 -0 -2 1 1 -1 -1 -0 -0 -0 1
Height
1479 1484 1489 1488 1491 1497 1503 1507 1509 1512 1516 1519 1524 1529 1534 1538 1540 1541 1544 1548 1551 1553 1555 1558 1560 1561 1563 1565 1566 1568 1569 1570 1571 1572 1572 1572 1572 1572 1573 1573 1573 1573 1573
1475 1481 1485 1488 1489 1493 1499 1505 1507 1510 1513 1517 1520 1524 1531 1533 1536 1539 1542 1545 1547 1550 1553 1556 1558 1559 1560 1562 1563 1565 1567 1568 1569 1570 1571 1571 1571 1569 1569 1571 1571 1571 1570
1472 1476 1481 1486 1486 1490 1494 1502 1505 1508 1512 1516 1517 1522 1527 1530 1532 1535 1537 1541 1543 1547 1550 1553 1555 1557 1559 1560 1561 1563 1564 1566 1567 1567 1569 1569 1568 1568 1566 1567 1568 1568 1567
1469 1473 1477 1482 1485 1488 1492 1498 1503 1505 1511 1513 1516 1517 1520 1529 1530 1532 1535 1538 1541 1543 1545 1549 1553 1554 1556 1558 1559 1560 1562 1563 1563 1563 1564 1565 1565 1565 1566 1564 1564 1564 1563
1466 1472 1473 1477 1482 1486 1490 1496 1500 1504 1506 1508 1512 1512 1519 1524 1526 1531 1533 1536 1538 1539 1542 1545 1549 1550 1553 1553 1556 1557 1559 1560 1560 1561 1561 1560 1560 1560 1561 1560 1559 1559 1559
1464 1468 1472 1476 1478 1482 1488 1494 1497 1502 1505 1510 1509 1512 1517 1519 1523 1527 1529 1528 1533 1536 1538 1543 1545 1548 1549 1548 1552 1555 1555 1555 1556 1556 1556 1554 1554 1553 1555 1555 1555 1555 1553
1459 1464 1469 1471 1474 1479 1485 1488 1496 1505 1508 1509 1512 1514 1516 1514 1516 1520 1525 1529 1532 1533 1535 1539 1541 1541 1543 1547 1548 1547 1548 1549 1549 1549 1549 1548 1548 1548 1549 1550 1549 1550 1549
1456 1460 1464 1468 1472 1476 1481 1486 1496 1499 1499 1499 1503 1508 1512 1513 1515 1519 1521 1525 1527 1529 1529 1532 1535 1537 1539 1541 1542 1542 1541 1542 1543 1542 1542 1542 1543 1543 1543 1544 1544 1544 1545
1451 1457 1461 1465 1469 1475 1481 1486 1492 1494 1494 1497 1502 1504 1505 1510 1512 1513 1515 1519 1521 1522 1526 1528 1528 1529 1532 1535 1535 1535 1535 1534 1534 1535 1537 1537 1537 1538 1538 1539 1539 1540 1540
1448 1453 1459 1464 1468 1473 1479 1483 1487 1490 1488 1492 1495 1497 1500 1502 1505 1508 1510 1513 1516 1517 1519 1521 1523 1524 1526 1528 1528 1527 1528 1528 1528 1529 1531 1531 1532 1533 1532 1534 1534 1534 1535
1447 1451 1457 1462 1467 1469 1474 1478 1479 1482 1484 1487 1489 1493 1494 1497 1500 1502 1504 1507 1510 1512 1514 1516 1517 1519 1520 1521 1521 1520 1520 1521 1521 1521 1523 1523 1525 1525 1526 1527 1529 1529 1530
1448 1453 1456 1460 1462 1464 1469 1472 1477 1481 1481 1483 1487 1490 1491 1494 1497 1499 1501 1503 1506 1508 1510 1511 1512 1513 1514 1514 1514 1513 1514 1513 1514 1515 1517 1518 1518 1518 1521 1522 1523 1524 1524
1449 1451 1454 1458 1461 1465 1466 1470 1474 1476 1479 1482 1487 1488 1490 1492 1495 1497 1499 1501 1502 1503 1504 1506 1507 1507 1507 1508 1508 1507 1509 1510 1508 1510 1512 1512 1513 1513 1514 1516 1517 1519 1520
1447 1450 1454 1458 1461 1464 1466 1470 1472 1475 1479 1482 1484 1485 1488 1490 1493 1494 1496 1497 1498 1500 1501 1502 1502 1503 1503 1503 1502 1503 1504 1503 1503 1503 1505 1507 1507 1509 1511 1512 1513 1513 1515
1450 1451 1454 1458 1461 1464 1467 1469 1472 1474 1476 1479 1482 1483 1486 1487 1489 1492 1493 1495 1497 1497 1497 1497 1497 1497 1497 1497 1496 1497 1495 1497 1498 1498 1500 1502 1504 1505 1506 1508 1508 1510 1511
1451 1454 1455 1458 1460 1462 1464 1466 1469 1471 1473 1477 1480 1482 1484 1486 1487 1490 1491 1493 1493 1494 1493 1493 1492 1491 1491 1491 1492 1491 1491 1491 1492 1494 1495 1498 1501 1500 1503 1503 1506 1507 1507
1451 1454 1456 1458 1460 1462 1463 1466 1468 1471 1474 1477 1479 1481 1483 1484 1486 1489 1488 1489 1490 1491 1490 1489 1488 1487 1486 1487 1486 1487 1489 1489 1490 1490 1491 1495 1496 1498 1499 1500 1503 1503 1505
1452 1455 1456 1458 1459 1461 1463 1466 1468 1470 1472 1474 1476 1477 1480 1482 1483 1484 1486 1487 1488 1488 1485 1485 1484 1484 1484 1484 1484 1484 1486 1486 1487 1487 1489 1490 1493 1495 1497 1498 1498 1500 1502
1453 1455 1456 1458 1459 1461 1463 1464 1466 1468 1470 1472 1474 1476 1477 1479 1480 1482 1483 1484 1484 1484 1483 1482 1480 1481 1481 1481 1481 1482 1483 1484 1484 1486 1486 1488 1491 1494 1495 1496 1497 1498 1499
1451 1453 1455 1456 1458 1461 1461 1462 1463 1466 1468 1470 1471 1473 1475 1476 1477 1479 1479 1479 1479 1479 1479 1478 1477 1479 1479 1480 1480 1480 1480 1482 1482 1483 1485 1488 1490 1491 1492 1494 1494 1495 1496
1452 1453 1454 1456 1457 1457 1458 1459 1461 1463 1465 1467 1468 1470 1471 1473 1473 1474 1474 1474 1475 1475 1475 1475 1476 1476 1477 1477 1478 1478 1478 1479 1481 1482 1484 1487 1489 1490 1490 1491 1491 1492 1492
1452 1453 1453 1453 1453 1454 1455 1456 1457 1458 1461 1463 1465 1467 1468 1469 1469 1470 1470 1470 1471 1471 1472 1472 1473 1473 1474 1475 1476 1476 1477 1478 1480 1481 1483 1486 1487 1488 1488 1488 1488 1489 1489
1453 1452 1453 1451 1450 1451 1452 1453 1454 1455 1458 1460 1462 1463 1464 1465 1465 1465 1466 1467 1467 1468 1469 1469 1469 1471 1471 1472 1473 1474 1476 1477 1479 1480 1482 1484 1485 1485 1485 1485 1485 1486 1487
1452 1452 1451 1450 1450 1451 1452 1453 1453 1454 1456 1458 1459 1460 1461 1461 1461 1461 1462 1463 1463 1465 1465 1466 1466 1468 1468 1469 1471 1472 1473 1476 1477 1479 1481 1482 1482 1482 1483 1483 1483 1484 1485
1451 1451 1451 1451 1451 1451 1452 1452 1452 1453 1454 1455 1456 1456 1456 1457 1457 1457 1458 1459 1460 1461 1462 1462 1463 1464 1465 1466 1468 1470 1472 1474 1475 1477 1478 1479 1479 1480 1480 1481 1481 1482 1483
1452 1451 1451 1451 1451 1450 1450 1450 1450 1451 1451 1452 1452 1452 1453 1452 1453 1453 1454 1454 1455 1456 1457 1457 1458 1460 1462 1463 1465 1468 1470 1471 1473 1474 1475 1476 1476 1477 1477 1478 1479 1479 1480